| time (UTC) | temp C | wind direction | speed KPH | gust KPH | rain 1hr cm | rain 24hr cm | rain mn cm | humidity % | barometer mb |
| 20260903141549 | 21 | 189 | 0.0 | 17.7 | 0.00 | 0.20 | 0.20 | 75 | 1018.1 |
| 20260903140151 | 21 | 194 | 0.0 | 19.3 | 0.00 | 0.20 | 0.20 | 75 | 1018.4 |
| 20260903134548 | 21 | 194 | 0.0 | 0.0 | 0.00 | 0.20 | 0.20 | 75 | 1018.2 |
| 20260903133049 | 21 | 196 | 0.0 | 0.0 | 0.00 | 0.20 | 0.20 | 74 | 1018.0 |
| 20260903131546 | 21 | 205 | 0.0 | 17.7 | 0.00 | 0.20 | 0.20 | 74 | 1017.9 |
| 20260903130105 | 21 | 194 | 0.0 | 17.7 | 0.00 | 0.20 | 0.20 | 76 | 1017.9 |
| 20260903124541 | 20 | 196 | 0.0 | 0.0 | 0.00 | 0.20 | 0.20 | 79 | 1017.9 |
| 20260903123038 | 19 | 201 | 0.0 | 0.0 | 0.00 | 0.20 | 0.20 | 79 | 1018.1 |
| 20260903121545 | 19 | 207 | 0.0 | 0.0 | 0.03 | 0.20 | 0.20 | 78 | 1018.1 |
| 20260903120036 | 18 | 211 | 0.0 | 0.0 | 0.03 | 0.20 | 0.20 | 75 | 1018.1 |
| 20260903114536 | 18 | 180 | 0.0 | 0.0 | 0.03 | 0.20 | 0.20 | 75 | 1018.1 |
| 20260903113038 | 18 | 180 | 0.0 | 0.0 | 0.03 | 0.20 | 0.20 | 75 | 1018.0 |
| 20260903111535 | 18 | 180 | 0.0 | 0.0 | 0.00 | 0.18 | 0.18 | 75 | 1018.2 |
| 20260903110106 | 17 | 180 | 0.0 | 0.0 | 0.00 | 0.18 | 0.18 | 75 | 1018.0 |
| 20260903104532 | 17 | 180 | 0.0 | 0.0 | 0.00 | 0.18 | 0.18 | 76 | 1018.1 |
| 20260903103033 | 17 | 180 | 0.0 | 0.0 | 0.05 | 0.18 | 0.18 | 76 | 1018.0 |
| 20260903101532 | 17 | 180 | 0.0 | 0.0 | 0.18 | 0.18 | 0.18 | 77 | 1018.0 |
| 20260903100033 | 18 | 180 | 0.0 | 0.0 | 0.18 | 0.18 | 0.18 | 78 | 1018.1 |
| 20260903094547 | 18 | 180 | 0.0 | 0.0 | 0.18 | 0.18 | 0.18 | 80 | 1018.2 |
| 20260903093033 | 20 | 174 | 0.0 | 0.0 | 0.10 | 0.10 | 0.10 | 74 | 1018.2 |
| 20260903091528 | 20 | 175 | 0.0 | 0.0 | 0.00 | 0.00 | 0.00 | 66 | 1017.6 |
| 20260903090030 | 20 | 175 | 0.0 | 0.0 | 0.00 | 0.00 | 0.00 | 65 | 1017.7 |
| 20260903084525 | 20 | 171 | 0.0 | 0.0 | 0.00 | 0.00 | 0.00 | 67 | 1017.8 |
| 20260903083022 | 19 | 172 | 0.0 | 0.0 | 0.00 | 0.00 | 0.00 | 68 | 1017.7 |
| 20260903081528 | 19 | 172 | 0.0 | 0.0 | 0.00 | 0.00 | 0.00 | 69 | 1017.8 |
| 20260903080015 | 18 | 171 | 0.0 | 0.0 | 0.00 | 0.03 | 0.00 | 69 | 1017.8 |
| 20260903074514 | 18 | 171 | 0.0 | 0.0 | 0.00 | 0.03 | 0.00 | 69 | 1017.9 |
| 20260903073012 | 18 | 171 | 0.0 | 0.0 | 0.00 | 0.03 | 0.00 | 69 | 1018.0 |
| 20260903070004 | -17 | 0.0 | 0.0 | 0.00 | 0.03 | 0.00 | 1018.2 | ||
| 20260903064604 | -17 | 0.0 | 0.0 | 0.00 | 0.03 | 0.00 | 1018.0 | ||
| 20260903063055 | -17 | 0.0 | 0.0 | 0.00 | 0.03 | 0.00 | 1018.3 | ||
| 20260903061557 | -17 | 0.0 | 0.0 | 0.00 | 0.03 | 0.00 | 1018.0 | ||
| 20260903060052 | 16 | 190 | 0.0 | 0.0 | 0.00 | 0.03 | 0.00 | 74 | 1018.1 |
| 20260903054551 | 16 | 190 | 0.0 | 0.0 | 0.00 | 0.03 | 0.00 | 74 | 1017.7 |
| 20260903053104 | 16 | 190 | 0.0 | 0.0 | 0.00 | 0.03 | 0.00 | 74 | 1017.8 |
| 20260903051543 | 16 | 190 | 0.0 | 0.0 | 0.00 | 0.03 | 0.00 | 74 | 1018.1 |
| 20260903050039 | 16 | 191 | 0.0 | 0.0 | 0.00 | 0.03 | 0.00 | 75 | 1018.1 |
| 20260903044543 | 16 | 191 | 0.0 | 0.0 | 0.00 | 0.03 | 0.00 | 74 | 1018.0 |
| 20260903043030 | 16 | 192 | 0.0 | 0.0 | 0.00 | 0.03 | 0.00 | 74 | 1017.8 |
| 20260903041529 | 16 | 194 | 0.0 | 0.0 | 0.00 | 0.03 | 0.00 | 75 | 1018.0 |
| 20260903040023 | 16 | 197 | 0.0 | 0.0 | 0.00 | 0.03 | 0.00 | 75 | 1018.2 |
| 20260903034521 | 16 | 197 | 0.0 | 0.0 | 0.00 | 0.03 | 0.00 | 75 | 1018.6 |
| 20260903033019 | 16 | 197 | 0.0 | 0.0 | 0.00 | 0.03 | 0.00 | 75 | 1018.6 |
| 20260903031518 | 16 | 197 | 0.0 | 0.0 | 0.00 | 0.03 | 0.00 | 75 | 1018.6 |
| 20260903030034 | 16 | 197 | 0.0 | 0.0 | 0.00 | 0.03 | 0.00 | 76 | 1018.7 |
| 20260903024533 | 16 | 195 | 0.0 | 0.0 | 0.00 | 0.03 | 0.00 | 76 | 1018.6 |
| 20260903023016 | 16 | 196 | 0.0 | 0.0 | 0.00 | 0.03 | 0.00 | 76 | 1018.6 |
| 20260903021516 | 16 | 195 | 0.0 | 0.0 | 0.00 | 0.03 | 0.00 | 76 | 1018.8 |
| 20260903020012 | 16 | 198 | 0.0 | 0.0 | 0.00 | 0.03 | 0.00 | 76 | 1019.1 |
| 20260903014511 | 15 | 198 | 0.0 | 0.0 | 0.00 | 0.03 | 0.00 | 76 | 1019.2 |
| 20260903013011 | 15 | 198 | 0.0 | 0.0 | 0.00 | 0.03 | 0.00 | 76 | 1019.1 |
| 20260903011509 | 15 | 198 | 0.0 | 0.0 | 0.00 | 0.03 | 0.00 | 77 | 1019.3 |
| 20260903010007 | 15 | 198 | 0.0 | 0.0 | 0.00 | 0.03 | 0.00 | 77 | 1019.4 |
| 20260903004510 | 15 | 198 | 0.0 | 0.0 | 0.00 | 0.03 | 0.00 | 78 | 1019.5 |
| 20260903003006 | 15 | 198 | 0.0 | 0.0 | 0.00 | 0.03 | 0.00 | 79 | 1019.5 |
| 20260903001503 | 15 | 198 | 0.0 | 0.0 | 0.00 | 0.03 | 0.00 | 79 | 1019.6 |
| 20260903000003 | 15 | 198 | 0.0 | 0.0 | 0.00 | 0.03 | 0.00 | 80 | 1019.7 |
| 20260902234501 | 15 | 198 | 0.0 | 0.0 | 0.00 | 0.03 | 0.00 | 80 | 1019.8 |
| 20260902233059 | 15 | 198 | 0.0 | 0.0 | 0.00 | 0.03 | 0.00 | 80 | 1020.0 |
| 20260902231557 | 15 | 198 | 0.0 | 0.0 | 0.00 | 0.03 | 0.00 | 80 | 1020.0 |
| 20260902230056 | 15 | 198 | 0.0 | 0.0 | 0.00 | 0.03 | 0.00 | 80 | 1020.1 |
| 20260902224554 | 15 | 198 | 0.0 | 0.0 | 0.00 | 0.03 | 0.00 | 80 | 1020.0 |
| 20260902223055 | 15 | 198 | 0.0 | 0.0 | 0.00 | 0.03 | 0.00 | 79 | 1020.2 |
| 20260902221605 | 16 | 198 | 0.0 | 0.0 | 0.00 | 0.03 | 0.00 | 79 | 1020.1 |
| 20260902220055 | 16 | 199 | 0.0 | 0.0 | 0.00 | 0.03 | 0.03 | 78 | 1020.2 |
| 20260902214549 | 16 | 199 | 0.0 | 0.0 | 0.00 | 0.03 | 0.03 | 78 | 1020.1 |
| 20260902213050 | 16 | 199 | 0.0 | 0.0 | 0.00 | 0.03 | 0.03 | 78 | 1020.1 |
| 20260902211602 | 16 | 199 | 0.0 | 0.0 | 0.00 | 0.03 | 0.03 | 77 | 1020.1 |
| 20260902210054 | 17 | 199 | 0.0 | 0.0 | 0.00 | 0.03 | 0.03 | 77 | 1020.2 |
| 20260902204548 | 17 | 199 | 0.0 | 0.0 | 0.00 | 0.03 | 0.03 | 77 | 1020.2 |
| 20260902203047 | 17 | 199 | 0.0 | 0.0 | 0.00 | 0.03 | 0.03 | 76 | 1020.2 |
| 20260902201603 | 17 | 199 | 0.0 | 0.0 | 0.00 | 0.03 | 0.03 | 75 | 1020.1 |
| 20260902200047 | 18 | 199 | 0.0 | 0.0 | 0.00 | 0.03 | 0.03 | 73 | 1020.3 |
| 20260902194545 | 18 | 199 | 0.0 | 0.0 | 0.00 | 0.03 | 0.03 | 71 | 1020.3 |
| 20260902193043 | 18 | 199 | 0.0 | 0.0 | 0.00 | 0.03 | 0.03 | 68 | 1020.3 |
| 20260902191547 | 19 | 199 | 0.0 | 0.0 | 0.00 | 0.03 | 0.03 | 64 | 1020.3 |
| 20260902190043 | 19 | 199 | 0.0 | 0.0 | 0.00 | 0.03 | 0.03 | 62 | 1020.1 |
| 20260902184543 | 19 | 199 | 0.0 | 0.0 | 0.00 | 0.03 | 0.03 | 61 | 1020.1 |
| 20260902183050 | 20 | 199 | 0.0 | 0.0 | 0.00 | 0.03 | 0.03 | 60 | 1020.0 |
| 20260902181542 | 20 | 199 | 0.0 | 0.0 | 0.00 | 0.03 | 0.03 | 59 | 1019.9 |
| 20260902180046 | 20 | 199 | 0.0 | 0.0 | 0.00 | 0.03 | 0.03 | 57 | 1019.7 |
| 20260902174540 | 21 | 199 | 0.0 | 0.0 | 0.00 | 0.03 | 0.03 | 54 | 1019.5 |
| 20260902173040 | 21 | 199 | 0.0 | 0.0 | 0.00 | 0.03 | 0.03 | 52 | 1019.5 |
| 20260902171540 | 21 | 199 | 0.0 | 0.0 | 0.00 | 0.03 | 0.03 | 50 | 1019.6 |
| 20260902170039 | 22 | 199 | 0.0 | 0.0 | 0.00 | 0.03 | 0.03 | 50 | 1019.6 |
| 20260902164549 | 22 | 200 | 0.0 | 0.0 | 0.00 | 0.03 | 0.03 | 50 | 1019.6 |
| 20260902163038 | 22 | 198 | 0.0 | 0.0 | 0.00 | 0.03 | 0.03 | 49 | 1019.6 |
| 20260902161535 | 22 | 223 | 0.0 | 0.0 | 0.00 | 0.03 | 0.03 | 52 | 1019.7 |
| 20260902160035 | 22 | 209 | 0.0 | 0.0 | 0.00 | 0.03 | 0.03 | 53 | 1019.7 |
| 20260902154537 | 22 | 233 | 0.0 | 0.0 | 0.00 | 0.03 | 0.03 | 54 | 1019.7 |
| 20260902153037 | 21 | 235 | 0.0 | 0.0 | 0.00 | 0.03 | 0.03 | 55 | 1019.9 |
| 20260902151530 | 21 | 235 | 0.0 | 0.0 | 0.00 | 0.03 | 0.03 | 56 | 1019.9 |
| 20260902150030 | 21 | 235 | 0.0 | 0.0 | 0.00 | 0.03 | 0.03 | 54 | 1019.9 |
| 20260902144530 | 22 | 235 | 0.0 | 0.0 | 0.00 | 0.03 | 0.03 | 53 | 1020.0 |
| 20260902143028 | 22 | 240 | 0.0 | 0.0 | 0.00 | 0.03 | 0.03 | 55 | 1020.0 |